Stations météo

Publicité
Arkona, Allemagne (10091): Température de l'air & dewpoint: 15.06.2018 01:00:00 - 21.06.2018 01:00:00 (CEST)Arkona, Allemagne (10091): Température de l'air 5cm & Température de l'air -5cm: 15.06.2018 01:00:00 - 21.06.2018 01:00:00 (CEST)Arkona, Allemagne (10091): Température de l'air -20cm & Température de l'air -100cm: 15.06.2018 01:00:00 - 21.06.2018 01:00:00 (CEST)Arkona, Allemagne (10091): water temperature: 15.06.2018 01:00:00 - 21.06.2018 01:00:00 (CEST)Arkona, Allemagne (10091): Vitesse du vent & gusts: 15.06.2018 01:00:00 - 21.06.2018 01:00:00 (CEST)Arkona, Allemagne (10091): Direction du vent: 15.06.2018 01:00:00 - 21.06.2018 01:00:00 (CEST)Arkona, Allemagne (10091): reduced air pressure: 15.06.2018 01:00:00 - 21.06.2018 01:00:00 (CEST)Arkona, Allemagne (10091): visibility: 15.06.2018 01:00:00 - 21.06.2018 01:00:00 (CEST)Arkona, Allemagne (10091): Ensoleillement: 15.06.2018 01:00:00 - 21.06.2018 01:00:00 (CEST)Arkona, Allemagne (10091): Quantités de précipitations: 15.06.2018 01:00:00 - 21.06.2018 01:00:00 (CEST)
Date & Time tt [°C] td [°C] tt 5cm [°C] tt -5cm [°C] tt -20cm [°C] tt -100cm [°C] tw [°C] ff [km/h] ff [knt] fx [km/h] fx [knt] dd ppp [hPa] vv [km] sd [min] rr [mm]
21.06.2018 01:00:00 17,3 15,4 - - - - 17,5 22 12 28 15 WSW 1013,1 8 0 -
21.06.2018 00:00:00 17,9 15,9 17,0 22,5 24,1 17,2 17,6 18 10 33 18 WSW 1013,5 7 0 0,0
20.06.2018 23:00:00 19,5 15,2 18,7 23,6 24,6 17,2 17,6 22 12 34 18 WSW 1013,8 15 0 0,0
20.06.2018 22:00:00 19,3 15,5 17,8 24,8 24,9 17,2 17,7 19 10 22 12 SW 1013,9 17 0 0,0
20.06.2018 21:00:00 21,3 15,2 20,7 26,7 25,2 17,2 17,8 18 10 26 14 SW 1014,1 26 55 0,0
20.06.2018 20:00:00 22,9 14,9 23,8 29,2 25,2 17,2 17,9 21 11 34 18 WSW 1014,5 30 60 0,0
20.06.2018 19:00:00 23,6 14,1 25,5 31,1 25,0 17,2 18,1 24 13 40 22 WSW 1015,3 20 60 0,0
20.06.2018 18:00:00 24,1 14,2 27,1 32,5 24,6 17,2 18,1 31 17 43 23 WSW 1016,1 20 60 0,0
20.06.2018 17:00:00 24,9 14,5 28,5 32,5 24,1 17,2 18,2 30 16 47 26 WSW 1016,6 14 60 0,0
20.06.2018 16:00:00 23,4 13,2 27,3 33,4 23,3 17,2 18,2 34 18 45 25 WSW 1017,2 19 60 0,0
20.06.2018 15:00:00 24,9 13,5 29,6 33,2 22,4 17,2 17,8 30 16 49 27 WSW 1017,6 12 60 0,0
20.06.2018 14:00:00 24,5 13,4 28,9 31,6 21,6 17,2 17,7 30 16 51 27 WSW 1018,3 15 60 0,0
20.06.2018 13:00:00 22,1 13,0 24,6 29,3 20,8 17,2 17,6 32 17 49 27 SW 1019,2 29 58 0,0
20.06.2018 12:00:00 22,3 13,8 26,7 26,4 20,2 17,2 17,5 29 16 44 24 SW 1020,0 22 48 0,0
20.06.2018 11:00:00 19,3 11,8 22,4 24,8 19,7 17,2 17,5 24 13 36 19 SW 1020,4 32 19 0,0
20.06.2018 10:00:00 18,2 9,7 21,4 23,2 19,4 17,2 17,5 21 11 29 15 SW 1021,1 41 47 0,0
20.06.2018 09:00:00 16,6 11,1 18,7 20,4 19,2 17,2 17,4 16 9 29 15 SW 1021,3 31 17 0,0
20.06.2018 08:00:00 15,3 10,3 16,4 18,2 19,2 17,2 17,4 22 12 33 18 W 1021,5 28 15 0,0
20.06.2018 07:00:00 14,5 9,3 15,0 16,6 19,4 17,2 17,4 24 13 33 18 W 1021,6 33 23 0,0
20.06.2018 06:00:00 14,1 9,3 13,4 15,9 19,7 17,2 17,4 26 14 37 20 W 1021,4 35 36 0,0
20.06.2018 05:00:00 14,1 9,1 13,2 16,1 20,0 17,2 17,4 28 15 41 22 W 1021,5 34 0 0,0
20.06.2018 04:00:00 14,5 9,9 13,9 16,4 20,3 17,2 17,5 29 16 44 24 W 1021,3 31 0 0,0
20.06.2018 03:00:00 14,5 9,3 13,6 16,7 20,7 17,2 17,4 34 18 45 24 W 1021,2 34 0 0,0
20.06.2018 02:00:00 15,0 8,9 13,9 17,1 21,1 17,2 17,5 33 18 44 24 W 1021,1 37 0 0,0
20.06.2018 01:00:00 15,2 9,3 14,1 17,7 21,5 17,2 17,6 31 17 48 26 W 1021,2 34 0 0,0
20.06.2018 00:00:00 15,7 9,3 14,7 18,4 22,0 17,2 17,6 31 17 44 24 W 1021,1 36 0 0,0
19.06.2018 23:00:00 16,2 10,1 15,1 19,3 22,5 17,2 17,6 29 16 42 23 W 1020,8 36 0 0,0
19.06.2018 22:00:00 16,6 11,0 15,6 20,4 22,9 17,2 17,7 28 15 46 25 W 1020,4 35 31 0,0
19.06.2018 21:00:00 17,5 11,0 16,8 22,0 23,3 17,2 17,8 35 19 53 28 W 1019,8 41 60 0,0
19.06.2018 20:00:00 18,3 10,5 18,4 24,6 23,4 17,2 17,8 36 19 51 28 W 1019,5 52 60 0,0
19.06.2018 19:00:00 19,1 11,5 20,5 26,5 23,3 17,2 17,8 39 21 53 29 W 1019,4 15 60 0,0
19.06.2018 18:00:00 19,9 13,2 22,4 28,0 23,0 17,2 17,8 38 21 58 32 WSW 1019,2 12 60 0,0
19.06.2018 17:00:00 19,7 13,5 22,7 27,9 22,6 17,2 17,8 44 24 59 32 WSW 1019,1 10 60 0,0
19.06.2018 16:00:00 19,8 13,0 23,2 28,5 22,1 17,2 17,7 43 23 62 33 WSW 1018,8 9 57 0,0
19.06.2018 15:00:00 19,6 14,1 21,7 27,9 21,6 17,2 17,7 46 25 58 31 W 1018,6 13 58 0,0
19.06.2018 14:00:00 19,7 14,5 23,2 26,0 21,1 17,2 17,6 46 25 63 34 WSW 1018,3 10 33 0,0
19.06.2018 13:00:00 19,3 14,3 22,6 25,2 20,7 17,2 17,6 42 23 59 32 WSW 1018,0 11 24 0,0
19.06.2018 12:00:00 18,5 14,2 21,3 23,5 20,4 17,2 17,6 42 23 56 30 WSW 1017,8 14 21 0,0
19.06.2018 11:00:00 18,3 14,3 21,0 20,8 20,3 17,2 17,6 36 19 52 28 WSW 1017,7 13 10 0,0
19.06.2018 10:00:00 16,8 13,8 17,1 19,9 20,3 17,2 17,6 32 17 49 27 WSW 1017,4 12 2 0,0
19.06.2018 09:00:00 17,2 14,2 18,0 19,2 20,4 17,2 17,7 31 17 47 25 WSW 1016,8 16 8 0,0
19.06.2018 08:00:00 16,5 13,7 16,9 18,3 20,5 17,2 17,7 29 16 42 23 WSW 1016,7 19 17 0,0
19.06.2018 07:00:00 16,0 13,0 15,0 17,4 20,8 17,2 17,7 33 18 45 24 W 1016,8 15 48 0,0
19.06.2018 06:00:00 15,7 13,3 14,5 17,8 21,2 17,2 17,8 32 17 44 24 W 1016,3 16 0 0,0
19.06.2018 05:00:00 15,9 14,4 15,1 18,2 21,5 17,2 17,9 28 15 39 21 WSW 1016,1 14 0 0,0
19.06.2018 04:00:00 15,7 14,7 15,2 18,4 21,9 17,2 17,8 26 14 34 19 WSW 1016,2 11 0 0,0
19.06.2018 03:00:00 15,4 14,8 15,3 19,1 22,3 17,2 17,8 19 11 39 21 WSW 1016,4 13 0 0,5
19.06.2018 02:00:00 15,3 14,6 15,2 19,7 22,7 17,2 17,9 27 15 41 22 WSW 1016,9 1,6 0 0,5
19.06.2018 01:00:00 16,1 15,3 16,0 20,5 23,1 17,2 18,0 17 9 24 13 WSW 1016,8 5 0 0,0
19.06.2018 00:00:00 15,7 14,8 15,7 21,3 23,4 17,2 18,1 19 11 36 19 WSW 1017,0 20 0 1,6
18.06.2018 23:00:00 17,3 14,7 17,4 22,8 23,8 17,2 18,2 11 6 18 10 WSW 1017,4 15 0 0,0
18.06.2018 22:00:00 17,8 14,0 17,9 23,6 24,1 17,2 18,2 13 7 27 15 WSW 1017,3 19 0 0,0
18.06.2018 21:00:00 17,9 13,5 18,2 24,8 24,3 17,2 18,3 16 9 28 15 WSW 1017,2 17 15 0,0
18.06.2018 20:00:00 19,0 12,9 20,1 26,3 24,5 17,2 18,4 22 12 33 18 WSW 1017,2 23 4 0,0
18.06.2018 19:00:00 19,0 11,9 20,1 28,5 24,5 17,2 18,4 18 10 27 15 WSW 1017,4 35 7 0,0
18.06.2018 18:00:00 19,4 11,0 20,9 30,1 24,2 17,2 18,4 20 11 28 15 WSW 1017,7 48 35 0,0
18.06.2018 17:00:00 19,1 11,2 23,0 31,3 23,8 17,2 18,4 15 8 31 17 WNW 1018,0 41 48 0,0
18.06.2018 16:00:00 19,6 12,1 25,2 30,9 23,3 17,2 18,2 20 11 30 16 WNW 1018,3 17 48 0,0
18.06.2018 15:00:00 18,9 12,2 23,3 29,4 22,9 17,2 17,8 16 9 31 17 WNW 1018,4 19 33 0,0
18.06.2018 14:00:00 17,9 11,8 20,6 29,4 22,4 17,2 17,7 9 5 24 13 W 1018,4 34 18 0,0
18.06.2018 13:00:00 18,8 12,4 24,8 30,8 21,6 17,2 17,6 14 8 32 17 W 1018,5 26 55 0,0
18.06.2018 12:00:00 18,7 11,3 24,2 28,8 20,9 17,2 17,6 16 9 37 20 W 1018,5 33 59 0,0
18.06.2018 11:00:00 19,4 11,4 24,3 25,3 20,5 17,2 17,5 20 11 35 19 WSW 1018,8 34 43 0,0
18.06.2018 10:00:00 18,1 10,6 21,8 23,0 20,2 17,2 17,5 21 12 34 18 WSW 1018,4 33 33 0,0
18.06.2018 09:00:00 17,1 10,0 18,7 20,7 20,2 17,2 17,5 22 12 30 16 WSW 1018,4 53 0 0,0
18.06.2018 08:00:00 16,4 11,5 17,2 19,2 20,2 17,2 17,5 16 8 20 11 WSW 1018,5 43 0 0,0
18.06.2018 07:00:00 15,5 12,4 16,1 18,2 20,4 17,2 17,5 12 6 17 9 SW 1018,4 31 18 0,0
18.06.2018 06:00:00 13,4 10,4 12,1 17,4 20,7 17,2 17,4 13 7 17 9 WSW 1018,0 40 14 0,0
18.06.2018 05:00:00 13,6 9,9 12,3 17,9 21,0 17,2 17,4 13 7 21 11 WSW 1017,6 45 0 0,0
18.06.2018 04:00:00 15,6 9,7 14,8 18,6 21,2 17,2 17,4 19 10 26 14 W 1017,7 52 0 0,0
18.06.2018 03:00:00 16,1 9,9 15,5 19,0 21,5 17,2 17,4 18 10 29 16 W 1017,7 54 0 0,0
18.06.2018 02:00:00 16,3 9,6 15,7 19,1 21,8 17,2 17,5 21 12 29 15 W 1017,5 61 0 0,0
18.06.2018 01:00:00 14,8 10,8 14,1 19,3 22,2 17,1 17,5 20 11 24 13 W 1017,2 42 0 0,0
18.06.2018 00:00:00 14,4 12,1 13,2 20,0 22,6 17,1 17,6 21 11 23 12 W 1016,9 30 0 0,0
17.06.2018 23:00:00 15,0 11,9 14,7 20,7 23,0 17,1 17,5 18 10 21 12 WSW 1016,8 37 0 0,0
17.06.2018 22:00:00 15,5 12,4 14,7 22,0 23,3 17,1 17,6 17 9 21 11 W 1016,5 31 0 0,0
17.06.2018 21:00:00 17,0 12,7 16,8 23,3 23,6 17,1 17,6 16 8 34 19 W 1016,2 36 0 0,0
17.06.2018 20:00:00 17,9 13,5 18,2 24,8 23,7 17,1 17,6 25 13 36 19 W 1015,8 30 3 0,0
17.06.2018 19:00:00 18,7 11,4 19,5 26,5 23,7 17,1 17,5 22 12 37 20 W 1015,1 43 31 0,0
17.06.2018 18:00:00 19,2 11,4 21,7 28,4 23,5 17,1 17,5 28 15 42 23 W 1014,9 20 60 0,0
17.06.2018 17:00:00 19,7 11,0 22,7 29,3 23,0 17,1 17,5 32 17 48 26 W 1014,8 21 60 0,0
17.06.2018 16:00:00 19,9 10,8 23,9 29,4 22,5 17,1 17,5 37 20 55 30 W 1014,4 22 60 0,0
17.06.2018 15:00:00 19,7 11,5 23,9 28,8 21,9 17,1 17,5 37 20 53 29 W 1014,3 13 60 0,0
17.06.2018 14:00:00 19,2 12,0 23,5 26,9 21,5 17,1 17,5 30 16 45 24 W 1014,1 20 51 0,0
17.06.2018 13:00:00 18,6 11,6 21,4 23,5 21,3 17,1 17,5 31 17 42 23 WSW 1014,1 11 4 0,0
17.06.2018 12:00:00 17,5 14,2 18,7 23,7 21,1 17,1 17,3 27 15 37 20 WSW 1013,9 10 13 0,0
17.06.2018 11:00:00 19,1 15,4 21,9 21,9 21,1 17,1 17,3 21 12 31 17 WSW 1013,5 31 15 0,1
17.06.2018 10:00:00 16,0 14,5 16,0 20,3 21,2 17,1 17,3 16 8 25 14 W 1013,5 10 0 0,0
17.06.2018 09:00:00 15,7 14,0 15,5 20,5 21,2 17,1 17,3 16 9 42 23 WNW 1012,9 12 0 0,2
17.06.2018 08:00:00 17,1 14,3 17,6 20,9 21,3 17,1 17,3 25 14 49 26 WNW 1012,5 13 12 0,0
17.06.2018 07:00:00 18,6 15,2 19,1 20,3 21,4 17,1 17,3 15 8 30 16 SW 1012,4 18 31 0,0
17.06.2018 06:00:00 17,1 14,7 17,1 19,4 21,7 17,1 17,3 15 8 21 11 SSW 1012,3 16 2 0,0
17.06.2018 05:00:00 17,0 14,3 16,1 19,5 21,9 17,1 17,2 18 10 29 15 SSW 1012,4 19 0 0,0
17.06.2018 04:00:00 17,4 13,7 16,6 19,9 22,2 17,1 17,3 23 12 32 17 SSW 1012,6 22 0 0,0
17.06.2018 03:00:00 17,9 13,5 17,5 20,3 22,5 17,1 17,3 21 12 28 15 S 1012,8 25 0 0,0
17.06.2018 02:00:00 17,9 13,2 17,0 20,7 22,8 17,1 17,4 18 10 36 19 SSE 1013,2 31 0 0,0
17.06.2018 01:00:00 18,4 12,2 18,2 21,1 23,2 17,1 17,4 29 16 44 24 SE 1013,4 37 0 0,0
17.06.2018 00:00:00 17,6 12,7 17,4 21,3 23,6 17,0 17,5 36 19 45 24 ESE 1014,0 29 0 0,0
16.06.2018 23:00:00 16,9 13,7 16,3 21,9 24,0 17,0 17,6 30 16 46 25 E 1014,2 32 0 0,0
16.06.2018 22:00:00 17,1 13,6 16,6 23,0 24,4 17,0 17,6 18 10 38 21 E 1014,4 33 0 0,0
16.06.2018 21:00:00 17,1 13,9 16,8 24,7 24,7 17,0 17,7 16 9 41 22 E 1014,5 37 0 0,0
16.06.2018 20:00:00 17,8 14,0 18,5 26,9 24,9 17,0 17,7 15 8 36 19 E 1014,7 33 32 0,0
16.06.2018 19:00:00 18,4 14,1 20,5 28,0 24,9 17,0 17,8 11 6 31 17 E 1015,1 33 5 0,0
16.06.2018 18:00:00 18,2 13,7 20,5 29,6 24,9 17,0 17,9 8 5 34 19 ENE 1015,3 35 27 0,0
16.06.2018 17:00:00 19,0 14,2 22,5 30,7 24,6 17,0 17,9 12 7 35 19 E 1015,9 39 38 0,0
16.06.2018 16:00:00 19,0 13,7 22,5 32,4 24,1 17,0 17,9 11 6 39 21 E 1016,4 34 57 0,0
16.06.2018 15:00:00 19,0 13,5 25,2 33,1 23,4 17,0 17,9 10 5 30 16 E 1016,6 32 60 0,0
16.06.2018 14:00:00 19,1 13,1 26,5 32,3 22,6 17,0 17,8 11 6 33 18 E 1017,3 24 60 0,0
16.06.2018 13:00:00 20,3 14,2 24,8 31,0 21,9 17,0 17,8 15 8 29 16 E 1018,0 23 60 0,0
16.06.2018 12:00:00 20,4 14,1 25,7 28,5 21,2 17,0 17,8 9 5 23 12 E 1018,2 32 58 0,0
16.06.2018 11:00:00 19,3 12,9 24,3 26,4 20,7 17,0 17,7 8 4 23 13 E 1018,2 29 44 0,0
16.06.2018 10:00:00 19,0 13,5 22,2 23,5 20,4 17,0 17,4 8 4 19 11 E 1018,3 34 27 0,0
16.06.2018 09:00:00 17,2 13,5 18,8 21,2 20,3 17,0 17,3 4 2 13 7 NE 1018,1 30 0 0,0
16.06.2018 08:00:00 17,8 13,4 19,2 20,2 20,3 17,0 17,3 5 3 11 6 E 1018,2 30 54 0,0
16.06.2018 07:00:00 16,4 13,4 15,6 17,5 20,5 17,0 17,3 5 3 8 4 E 1018,3 23 60 0,0
16.06.2018 06:00:00 14,5 12,5 12,1 16,9 20,9 17,0 17,3 7 4 10 5 S 1018,3 23 45 0,0
16.06.2018 05:00:00 14,1 11,3 11,3 17,0 21,3 17,0 17,3 9 5 15 8 SW 1018,3 27 0 0,0
16.06.2018 04:00:00 13,4 11,1 11,3 17,4 21,7 17,0 17,3 14 8 17 9 SW 1018,4 25 0 0,0
16.06.2018 03:00:00 12,9 11,0 10,4 17,9 22,2 17,0 17,4 16 9 17 9 SW 1018,5 22 0 0,0
16.06.2018 02:00:00 13,2 11,0 10,9 18,5 22,7 17,0 17,4 17 9 18 10 SW 1018,1 26 0 0,0
16.06.2018 01:00:00 13,1 10,3 10,5 19,3 23,2 17,0 17,4 15 8 18 10 SSW 1018,0 30 0 0,0
16.06.2018 00:00:00 13,7 9,6 11,5 20,2 23,7 17,0 17,4 13 7 14 8 SSW 1018,0 38 0 0,0
15.06.2018 23:00:00 14,6 10,1 11,9 21,3 24,3 17,0 17,4 10 5 13 7 W 1018,2 40 0 0,0
15.06.2018 22:00:00 15,6 10,1 13,9 23,0 24,8 17,0 17,5 11 6 12 6 W 1018,1 45 18 0,0
15.06.2018 21:00:00 16,7 10,8 15,1 25,0 25,1 17,0 17,5 7 4 13 7 W 1017,8 44 58 0,0
15.06.2018 20:00:00 17,5 10,7 18,5 27,7 25,3 17,0 17,6 9 5 20 11 WNW 1017,7 37 60 0,0
15.06.2018 19:00:00 18,2 10,9 20,9 30,0 25,3 17,0 17,7 13 7 24 13 W 1017,5 33 60 0,0
15.06.2018 18:00:00 18,1 9,3 22,0 31,7 25,0 17,0 17,7 19 10 27 15 W 1017,6 34 60 0,0
15.06.2018 17:00:00 18,4 10,6 22,8 32,6 24,6 17,0 17,8 18 10 29 16 W 1017,6 22 60 0,0
15.06.2018 16:00:00 18,4 11,5 24,1 33,8 23,9 17,0 17,7 17 9 27 14 W 1017,6 18 60 0,0
15.06.2018 15:00:00 18,0 10,2 25,1 33,4 23,2 17,0 17,5 14 8 29 16 WNW 1017,6 25 60 0,0
15.06.2018 14:00:00 17,8 10,8 24,0 32,1 22,4 17,0 17,4 17 9 28 15 WNW 1017,6 21 60 0,0
15.06.2018 13:00:00 17,2 10,7 23,5 30,4 21,7 17,0 17,3 18 10 29 16 W 1017,4 28 60 0,0
15.06.2018 12:00:00 17,8 12,1 23,1 27,6 21,2 17,0 17,2 18 10 28 15 W 1017,1 27 57 0,0
15.06.2018 11:00:00 16,5 11,6 21,0 25,5 20,8 17,0 17,2 18 10 29 16 W 1016,9 31 58 0,0
15.06.2018 10:00:00 16,9 11,8 20,4 24,2 20,5 17,0 17,1 21 11 32 17 W 1016,3 29 60 0,0
15.06.2018 09:00:00 16,3 11,5 19,0 21,2 20,5 17,0 17,1 20 11 28 15 W 1016,0 18 33 0,0
15.06.2018 08:00:00 16,2 12,7 17,3 19,9 20,5 17,0 17,1 19 10 25 14 W 1015,5 21 5 0,0
15.06.2018 07:00:00 16,1 13,2 16,6 19,3 20,7 17,0 17,1 11 6 20 11 W 1014,8 17 5 0,0
15.06.2018 06:00:00 15,4 13,2 15,0 19,0 20,9 17,0 17,1 16 9 24 13 W 1014,5 12 0 0,0
15.06.2018 05:00:00 15,3 13,9 14,9 19,3 21,1 17,0 17,1 18 10 29 16 WSW 1014,2 4,5 0 0,0
15.06.2018 04:00:00 16,0 12,9 15,9 19,5 21,4 17,0 17,1 22 12 32 17 W 1014,1 9 0 0,0
15.06.2018 03:00:00 15,9 13,0 15,8 19,8 21,7 17,0 17,0 16 9 23 12 WSW 1014,0 7 0 0,0
15.06.2018 02:00:00 15,9 12,4 15,8 20,1 22,0 17,0 17,0 16 8 23 12 WSW 1013,7 9 0 0,0
15.06.2018 01:00:00 15,5 12,6 15,4 20,4 22,3 17,0 17,1 12 6 26 14 WSW 1013,7 11 0 0,0

tt = Température de l'air
td = dewpoint
tt 5cm = Température de l'air 5cm
tt -5cm = Température de l'air -5cm
tt -20cm = Température de l'air -20cm
tt -100cm = Température de l'air -100cm
tw = water temperature
ff = Vitesse du vent
fx = gusts
dd = Direction du vent
ppp = reduced air pressure
vv = visibility
sd = Ensoleillement
rr = Quantités de précipitations

stations d'obs. à proximité